Location: Paris
(48.6709°N, 2.3750°E)
Time: 10:22:50
(UTC+02:00)

LO-87 - Pass Details

Date: 01 July 2022
Orbit: 451 x 466 km, 97.4° (Epoch: 09 August)

Event Time Altitude Azimuth Distance (km) Brightness Sun altitude
Exits shadow 23:51:57 - 92° (E) 1,867 ? -13.2°
Reaches altitude 10° 23:53:35 10° 69° (ENE) 1,618 ? -13.3°
Maximum altitude 23:54:08 10° 60° (ENE) 1,601 ? -13.4°
Drops below altitude 10° 23:54:42 10° 50° (NE) 1,622 ? -13.4°
Sets 23:58:28 0° 8° (N) 2,512 ? -13.7°
